This demonstration page uses our WeatherBlox Daily Observations layout. Learn more.

Left ArrowRight Arrow

Hourly Observations for August 12, 2022

Temp ( °F °C ) Dew Point ( °F °C ) Humidity (%) Winds ( mph kmh ) Pressure ( in mb ) Visibility ( mi km ) Precip ( " mm )
12:56 am 00:56 Clear 65 18.3 58 14.4 78 78 S 8 13 30.10 1019 10 16 0.00 0.00
1:56 am 01:56 Clear 64 17.8 58 14.4 80 80 S 9 15 30.09 1019 10 16 0.00 0.00
2:56 am 02:56 Clear 62 16.7 58 14.4 86 86 S 9 15 30.09 1019 10 16 0.00 0.00
3:56 am 03:56 Clear 64 17.8 58 14.4 80 80 S 10 17 30.07 1018 10 16 0.00 0.00
4:56 am 04:56 Clear 63 17.2 57 13.9 81 81 SSW 10 17 30.08 1019 10 16 0.00 0.00
5:56 am 05:56 Clear 61 16.1 56 13.3 83 83 S 9 15 30.09 1019 10 16 0.00 0.00
6:56 am 06:56 Sunny 58 14.4 55 12.8 90 90 S 6 9 30.09 1019 10 16 0.00 0.00
7:56 am 07:56 Sunny 64 17.8 57 13.9 78 78 SSW 7 11 30.09 1019 10 16 0.00 0.00
8:56 am 08:56 Sunny 70 21.1 58 14.4 66 66 SSW 10 17 30.08 1019 10 16 0.00 0.00
9:56 am 09:56 Sunny 77 25 59 15 54 54 S 10 17 30.08 1019 10 16 0.00 0.00
10:56 am 10:56 Sunny 81 27.2 59 15 47 47 SSW 15 24 30.07 1018 10 16 0.00 0.00
11:56 am 11:56 Sunny 85 29.4 60 15.6 43 43 SSW 16 26 30.06 1018 10 16 0.00 0.00
12:56 pm 12:56 Sunny 87 30.6 62 16.7 43 43 S 16 26 30.05 1018 10 16 0.00 0.00
1:56 pm 13:56 Sunny 89 31.7 63 17.2 42 42 S 13 20 30.03 1017 10 16 0.00 0.00
2:56 pm 14:56 Sunny 91 32.8 64 17.8 41 41 S 12 19 30.02 1017 10 16 0.00 0.00
3:56 pm 15:56 Sunny 93 33.9 63 17.2 37 37 S 15 24 29.99 1016 10 16 0.00 0.00
4:56 pm 16:56 Sunny 93 33.9 61 16.1 35 35 SSE 15 24 29.98 1015 10 16 0.00 0.00
5:56 pm 17:56 Sunny 92 33.3 58 14.4 32 32 S 16 26 29.96 1015 10 16 0.00 0.00
6:56 pm 18:56 Sunny 90 32.2 61 16.1 38 38 SSE 13 20 29.96 1014 10 16 0.00 0.00
7:56 pm 19:56 Sunny 86 30 60 15.6 42 42 SSE 14 22 29.95 1014 10 16 0.00 0.00
8:56 pm 20:56 Clear 81 27.2 57 13.9 44 44 SSE 13 20 29.94 1014 10 16 0.00 0.00
9:56 pm 21:56 Clear 78 25.6 57 13.9 48 48 S 14 22 29.95 1014 10 16 0.00 0.00
10:56 pm 22:56 Clear 77 25 55 12.8 47 47 S 15 24 29.94 1014 10 16 0.00 0.00
11:56 pm 23:56 Clear 78 25.6 54 12.2 43 43 S 17 28 29.93 1014 10 16 0.00 0.00

Powered by AerisWeather